Waarnemingen

Advertentie
Mijn weer
Svenska Hogarna A, Zweden (2498): temperatuur & dauwpunt: 22.05.2018 12:00:00 - 28.05.2018 12:00:00 (CEST)Svenska Hogarna A, Zweden (2498): windsnelheid & windstoten: 22.05.2018 12:00:00 - 28.05.2018 12:00:00 (CEST)Svenska Hogarna A, Zweden (2498): windrichting: 22.05.2018 12:00:00 - 28.05.2018 12:00:00 (CEST)Svenska Hogarna A, Zweden (2498): luchtdruk: 22.05.2018 12:00:00 - 28.05.2018 12:00:00 (CEST)Svenska Hogarna A, Zweden (2498): zicht: 22.05.2018 12:00:00 - 28.05.2018 12:00:00 (CEST)Svenska Hogarna A, Zweden (2498): neerslag: 22.05.2018 12:00:00 - 28.05.2018 12:00:00 (CEST)
Datum & Tijd tt [°C] td [°C] ff [km/u] ff [kn] fx [km/u] fx [kn] dd ppp [hPa] vv [km] rr [mm]
28.05.2018 12:00:00 - - - - - - - - - -
28.05.2018 11:00:00 15,1 8,3 12 7 18 10 O 1031,7 42 0,0
28.05.2018 10:00:00 14,5 9,3 11 6 16 9 O 1031,7 39 0,0
28.05.2018 09:00:00 14,9 10,3 9 5 14 8 O 1031,8 30 0,0
28.05.2018 08:00:00 13,5 10,3 10 6 16 8 O 1031,6 38 0,0
28.05.2018 07:00:00 12,8 10,0 10 5 16 9 ONO 1031,3 38 0,0
28.05.2018 06:00:00 11,2 8,6 13 7 19 11 ONO 1031,1 40 0,0
28.05.2018 05:00:00 10,5 7,7 15 8 19 10 NNO 1030,9 45 0,0
28.05.2018 04:00:00 9,6 7,0 14 8 23 12 NNO 1030,9 41 0,0
28.05.2018 03:00:00 9,5 6,8 16 9 23 12 N 1031,1 46 0,0
28.05.2018 02:00:00 9,6 6,5 18 10 25 13 N 1030,8 31 0,0
28.05.2018 01:00:00 9,4 6,5 18 10 24 13 N 1030,9 26 0,0
28.05.2018 00:00:00 9,5 6,6 16 9 23 13 N 1030,8 36 0,0
27.05.2018 23:00:00 9,6 6,3 17 9 26 14 N 1030,6 40 0,0
27.05.2018 22:00:00 9,9 6,2 21 11 27 14 N 1030,5 38 0,0
27.05.2018 21:00:00 10,0 5,8 21 12 34 18 N 1030,5 37 0,0
27.05.2018 20:00:00 10,7 5,9 23 12 31 17 N 1030,4 39 0,0
27.05.2018 19:00:00 11,5 5,6 23 13 34 18 N 1030,5 36 0,0
27.05.2018 18:00:00 11,8 6,1 22 12 32 17 N 1030,6 37 0,0
27.05.2018 17:00:00 11,6 6,7 22 12 32 17 N 1030,8 38 0,0
27.05.2018 16:00:00 12,2 7,3 22 12 32 17 N 1031,0 40 0,0
27.05.2018 15:00:00 12,0 7,3 22 12 31 17 N 1031,3 37 0,0
27.05.2018 14:00:00 11,5 7,2 24 13 31 17 N 1031,5 34 0,0
27.05.2018 13:00:00 12,3 8,0 23 12 32 17 NNW 1031,6 39 0,0
27.05.2018 12:00:00 12,0 8,1 20 11 32 17 NNW 1031,3 33 0,0
27.05.2018 11:00:00 11,9 7,8 24 13 34 18 N 1031,0 40 0,0
27.05.2018 10:00:00 12,1 7,8 23 12 31 17 NNW 1030,6 34 0,0
27.05.2018 09:00:00 12,1 7,2 22 12 32 18 N 1029,9 39 0,0
27.05.2018 08:00:00 11,9 7,4 22 12 31 17 N 1029,6 32 0,0
27.05.2018 07:00:00 11,0 7,5 19 11 32 17 N 1029,2 41 0,0
27.05.2018 06:00:00 10,3 7,5 22 12 36 19 N 1028,9 30 0,0
27.05.2018 05:00:00 10,4 7,3 24 13 34 18 NNW 1028,7 39 0,0
27.05.2018 04:00:00 10,3 7,7 22 12 29 16 NNW 1028,5 19 0,0
27.05.2018 03:00:00 10,1 8,5 22 12 29 16 N 1028,6 28 0,0
27.05.2018 02:00:00 10,4 8,7 18 10 30 16 N 1028,7 34 0,0
27.05.2018 01:00:00 11,0 8,0 16 9 23 13 NNW 1028,7 45 0,0
27.05.2018 00:00:00 11,6 7,7 17 9 24 13 NNW 1028,7 50 0,0
26.05.2018 23:00:00 12,1 8,0 15 8 20 11 NNW 1028,2 49 0,0
26.05.2018 22:00:00 12,4 8,9 15 8 22 12 N 1028,2 50 0,0
26.05.2018 21:00:00 13,9 10,3 11 6 17 9 N 1028,4 43 0,0
26.05.2018 20:00:00 14,6 11,7 11 6 16 9 N 1027,8 34 0,0
26.05.2018 19:00:00 15,3 12,2 7 4 12 6 NO 1027,7 41 0,0
26.05.2018 18:00:00 16,6 10,2 5 3 14 8 ONO 1028,0 42 0,0
26.05.2018 17:00:00 16,5 10,4 8 4 12 7 O 1027,9 41 0,0
26.05.2018 16:00:00 17,0 9,4 7 4 13 7 NO 1028,3 42 0,0
26.05.2018 15:00:00 17,0 9,4 9 5 13 7 O 1028,6 35 0,0
26.05.2018 14:00:00 17,5 7,5 8 5 16 9 O 1028,9 43 0,0
26.05.2018 13:00:00 16,4 10,0 10 6 18 10 O 1028,9 38 0,0
26.05.2018 12:00:00 15,8 8,0 10 6 18 10 NO 1029,2 37 0,0
26.05.2018 11:00:00 15,2 6,7 11 6 18 10 NNO 1029,2 36 0,0
26.05.2018 10:00:00 15,3 9,4 7 4 13 7 NNW 1029,2 38 0,0
26.05.2018 09:00:00 14,4 8,8 9 5 13 7 NNO 1029,0 48 0,0
26.05.2018 08:00:00 13,6 9,5 5 3 9 5 ONO 1029,0 45 0,0
26.05.2018 07:00:00 13,3 10,1 5 3 10 6 NO 1029,0 44 0,0
26.05.2018 06:00:00 12,2 9,8 6 3 9 5 NNO 1028,7 38 0,0
26.05.2018 05:00:00 11,1 9,2 8 4 9 5 NO 1028,7 44 0,0
26.05.2018 04:00:00 10,8 9,2 9 5 12 6 O 1028,7 47 0,0
26.05.2018 03:00:00 10,8 9,2 9 5 11 6 ONO 1029,2 40 0,0
26.05.2018 02:00:00 11,0 9,3 9 5 12 7 NO 1029,1 47 0,0
26.05.2018 01:00:00 10,7 9,0 11 6 12 7 ONO 1028,9 46 0,0
26.05.2018 00:00:00 11,4 8,6 11 6 15 8 O 1029,0 50 0,0
25.05.2018 23:00:00 11,3 9,2 12 6 14 7 O 1029,1 47 0,0
25.05.2018 22:00:00 11,3 9,0 10 6 13 7 O 1028,9 50 0,0
25.05.2018 21:00:00 12,2 8,9 7 4 11 6 ONO 1028,6 49 0,0
25.05.2018 20:00:00 12,6 8,9 9 5 12 7 O 1028,5 47 0,0
25.05.2018 19:00:00 13,2 8,5 8 5 16 9 O 1028,9 40 0,0
25.05.2018 18:00:00 13,5 8,6 10 6 17 9 O 1028,9 44 0,0
25.05.2018 17:00:00 14,1 7,2 10 6 16 9 O 1029,3 47 0,0
25.05.2018 16:00:00 13,9 6,5 11 6 18 10 O 1029,6 48 0,0
25.05.2018 15:00:00 13,7 7,5 12 7 16 9 O 1029,9 47 0,0
25.05.2018 14:00:00 14,5 7,5 12 6 18 10 O 1030,1 47 0,0
25.05.2018 13:00:00 14,4 7,4 11 6 17 9 O 1030,1 41 0,0
25.05.2018 12:00:00 13,4 7,0 13 7 20 11 O 1030,3 35 0,0
25.05.2018 11:00:00 13,5 7,3 13 7 19 10 O 1030,4 47 0,0
25.05.2018 10:00:00 13,3 6,4 12 6 19 11 O 1030,3 50 0,0
25.05.2018 09:00:00 12,9 3,5 12 7 17 9 O 1030,1 48 0,0
25.05.2018 08:00:00 13,9 1,5 8 5 11 6 ONO 1030,0 50 0,0
25.05.2018 07:00:00 14,6 -1,1 4 2 9 5 NO 1030,1 47 0,0
25.05.2018 06:00:00 12,1 -0,4 7 4 11 6 NNW 1030,0 48 0,0
25.05.2018 05:00:00 11,4 -0,4 7 4 11 6 NNW 1030,0 50 0,0
25.05.2018 04:00:00 11,1 -0,7 1 1 5 3 WZW 1029,8 50 0,0
25.05.2018 03:00:00 10,3 0,9 5 3 8 5 ZZO 1029,9 50 0,0
25.05.2018 02:00:00 9,9 1,3 6 3 8 5 ZZW 1029,7 40 0,0
25.05.2018 01:00:00 10,2 2,8 3 2 8 4 ZW 1029,5 45 0,0
25.05.2018 00:00:00 10,0 4,2 3 2 9 5 Z 1029,3 50 0,0
24.05.2018 23:00:00 10,7 3,0 8 4 9 5 O 1029,3 50 0,0
24.05.2018 22:00:00 11,1 0,2 4 2 6 3 OZO 1029,2 50 0,0
24.05.2018 21:00:00 11,2 3,0 4 2 8 4 ONO 1029,4 48 0,0
24.05.2018 20:00:00 11,9 3,6 5 3 12 7 NO 1029,4 50 0,0
24.05.2018 19:00:00 12,5 3,2 9 5 14 8 NNO 1029,4 43 0,0
24.05.2018 18:00:00 12,7 4,1 10 5 18 10 N 1029,7 50 0,0
24.05.2018 17:00:00 12,0 4,0 15 8 22 12 N 1030,1 44 0,0
24.05.2018 16:00:00 12,7 2,8 14 8 21 11 N 1030,5 39 0,0
24.05.2018 15:00:00 13,7 3,7 15 8 21 11 NNW 1031,0 41 0,0
24.05.2018 14:00:00 12,9 3,3 15 8 28 15 NNW 1031,3 46 0,0
24.05.2018 13:00:00 13,1 5,0 17 9 29 16 NNW 1031,3 45 0,0
24.05.2018 12:00:00 12,8 4,7 16 9 26 14 NNW 1031,7 50 0,0
24.05.2018 11:00:00 11,3 6,0 14 8 24 13 NNW 1031,8 50 0,0
24.05.2018 10:00:00 11,6 4,8 14 8 25 14 NNW 1031,8 49 0,0
24.05.2018 09:00:00 10,1 5,3 16 9 25 13 N 1031,6 45 0,0
24.05.2018 08:00:00 9,5 5,3 16 9 24 13 N 1031,4 46 0,0
24.05.2018 07:00:00 9,3 5,3 16 8 24 13 N 1031,2 49 0,0
24.05.2018 06:00:00 8,2 5,1 17 9 27 14 N 1030,8 46 0,0
24.05.2018 05:00:00 8,1 5,0 21 11 30 16 NNW 1030,3 48 0,0
24.05.2018 04:00:00 7,9 4,7 23 13 32 18 N 1029,7 50 0,0
24.05.2018 03:00:00 7,7 4,6 20 11 28 15 N 1029,5 46 0,0
24.05.2018 02:00:00 7,9 4,7 23 12 30 16 N 1029,1 50 0,0
24.05.2018 01:00:00 7,8 4,7 17 9 29 16 NNW 1028,8 40 0,0
24.05.2018 00:00:00 8,0 4,6 18 10 29 16 NNW 1028,7 49 0,0
23.05.2018 23:00:00 8,2 4,4 16 9 31 17 NNW 1028,6 48 0,0
23.05.2018 22:00:00 8,5 4,1 18 10 34 18 NW 1028,3 44 0,0
23.05.2018 21:00:00 8,3 4,7 22 12 37 20 NNW 1027,5 47 0,0
23.05.2018 20:00:00 8,5 5,4 22 12 37 20 NNW 1027,0 42 0,0
23.05.2018 19:00:00 8,8 5,2 26 14 44 24 NNW 1026,6 42 0,0
23.05.2018 18:00:00 9,2 5,4 26 14 42 23 NNW 1026,1 34 0,0
23.05.2018 17:00:00 9,3 5,5 28 15 44 24 NNW 1025,8 40 0,0
23.05.2018 16:00:00 9,8 5,6 28 15 48 26 NNW 1025,6 42 0,0
23.05.2018 15:00:00 9,5 5,7 31 17 52 28 NNW 1025,0 39 0,0
23.05.2018 14:00:00 9,9 5,9 27 14 46 25 NNW 1024,6 36 0,0
23.05.2018 13:00:00 10,1 6,4 31 17 51 27 NNW 1024,1 32 0,0
23.05.2018 12:00:00 10,8 6,4 27 15 39 21 NNW 1023,6 33 0,0
23.05.2018 11:00:00 11,4 7,5 23 12 29 16 N 1022,8 34 0,0
23.05.2018 10:00:00 10,9 7,4 23 12 31 17 N 1022,1 33 0,0
23.05.2018 09:00:00 11,4 7,5 20 11 31 17 NNW 1021,6 30 0,0
23.05.2018 08:00:00 12,2 9,4 13 7 19 11 ZW 1020,6 42 0,0
23.05.2018 07:00:00 12,3 8,4 15 8 22 12 ZZW 1020,0 42 0,0
23.05.2018 06:00:00 11,8 8,6 15 8 21 11 ZZW 1019,7 36 0,0
23.05.2018 05:00:00 10,3 8,4 14 8 16 9 Z 1019,3 43 0,0
23.05.2018 04:00:00 11,2 8,8 15 8 16 9 ZW 1019,2 49 0,0
23.05.2018 03:00:00 10,3 9,1 14 8 16 9 ZW 1019,1 38 0,0
23.05.2018 02:00:00 10,8 9,2 13 7 21 11 ZZW 1019,1 47 0,0
23.05.2018 01:00:00 10,8 9,2 16 9 21 12 ZW 1018,8 41 0,0
23.05.2018 00:00:00 11,4 8,6 16 9 21 11 ZW 1018,7 50 0,0
22.05.2018 23:00:00 11,6 8,3 16 8 19 10 ZZW 1018,7 49 0,0
22.05.2018 22:00:00 11,6 9,0 13 7 14 8 ZZW 1018,7 43 0,0
22.05.2018 21:00:00 12,4 8,9 10 5 16 8 ZZW 1018,6 50 0,0
22.05.2018 20:00:00 13,1 9,4 11 6 14 7 ZZO 1018,6 50 0,0
22.05.2018 19:00:00 14,5 8,7 8 4 10 5 Z 1018,8 43 0,0
22.05.2018 18:00:00 16,0 8,5 5 3 8 5 ZW 1019,2 48 0,0
22.05.2018 17:00:00 15,7 9,6 5 3 10 6 ZZW 1019,6 45 0,0
22.05.2018 16:00:00 14,8 9,0 8 5 17 9 Z 1019,9 33 0,0
22.05.2018 15:00:00 13,9 8,5 12 7 18 10 ZO 1020,3 42 0,0
22.05.2018 14:00:00 12,8 8,5 14 8 22 12 OZO 1020,7 36 0,0
22.05.2018 13:00:00 13,6 8,0 13 7 21 11 O 1021,0 40 0,0
22.05.2018 12:00:00 12,9 7,6 13 7 20 11 O 1021,4 44 0,0

tt = temperatuur
td = dauwpunt
ff = windsnelheid
fx = windstoten
dd = windrichting
ppp = luchtdruk
vv = zicht
rr = neerslag

Weerstations in de omgeving